This demonstration page uses our WeatherBlox Daily Observations layout. Learn more.

39.92423, -83.80882

Hourly Observations for November 14, 2019

Temp ( °F °C ) Dew Point ( °F °C ) Humidity (%) Winds ( mph kmh ) Pressure ( in mb ) Visibility ( mi km ) Precip ( " mm )
12:56 am 00:56 Clear 24 -4.4 19 -7.2 81 81 S 7 11 30.18 1022 10 16.09344 0 0
1:56 am 01:56 Clear 25 -3.9 20 -6.7 81 81 SSW 5 7 30.18 1022 10 16.09344 0 0
2:56 am 02:56 Partly Cloudy 27 -2.8 22 -5.6 81 81 SSW 6 9 30.18 1022 10 16.09344 0 0
3:56 am 03:56 Cloudy 28 -2.2 22 -5.6 78 78 SSW 9 15 30.18 1022 10 16.09344 0 0
4:56 am 04:56 Partly Cloudy 28 -2.2 23 -5 81 81 SSW 7 11 30.18 1022 10 16.09344 0 0
5:56 am 05:56 Cloudy 29 -1.7 24 -4.4 82 82 SSW 6 9 30.21 1023 10 16.09344 0 0
6:56 am 06:56 Cloudy 29 -1.7 24 -4.4 82 82 SSW 7 11 30.21 1023 10 16.09344 0 0
7:56 am 07:56 Cloudy 29 -1.7 25 -3.9 85 85 SW 8 13 30.24 1024 10 16.09344 0 0
8:56 am 08:56 Cloudy 30 -1.1 25 -3.9 82 82 SW 8 13 30.24 1024 10 16.09344 0 0
9:56 am 09:56 Cloudy 32 0 26 -3.3 79 79 SW 10 17 30.24 1024 10 16.09344 0 0
10:56 am 10:56 Cloudy 33 0.6 25 -3.9 72 72 SW 10 17 30.24 1024 10 16.09344 0 0
11:56 am 11:56 Mostly Cloudy 34 1.1 25 -3.9 70 70 WSW 8 13 30.24 1024 10 16.09344 0 0
12:56 pm 12:56 Sunny 37 2.8 26 -3.3 65 65 W 7 11 30.24 1024 10 16.09344 0 0
1:56 pm 13:56 Sunny 38 3.3 27 -2.8 65 65 SW 3 6 30.24 1024 10 16.09344 0 0
2:56 pm 14:56 Sunny 40 4.4 28 -2.2 63 63 WSW 12 19 30.24 1024 10 16.09344 0 0
3:56 pm 15:56 Mostly Cloudy 39 3.9 26 -3.3 60 60 SW 8 13 30.24 1024 10 16.09344 0 0
4:56 pm 16:56 Cloudy 38 3.3 28 -2.2 68 68 WSW 7 11 30.27 1025 10 16.09344 0 0
5:56 pm 17:56 Partly Cloudy 35 1.7 27 -2.8 72 72 SW 3 6 30.27 1025 10 16.09344 0 0
6:56 pm 18:56 Cloudy 33 0.6 27 -2.8 78 78 SW 5 7 30.3 1026 10 16.09344 0 0
7:56 pm 19:56 Clear 32 0 28 -2.2 85 85 WSW 6 9 30.3 1026 10 16.09344 0 0
8:56 pm 20:56 Clear 30 -1.1 28 -2.2 92 92 WSW 5 7 30.3 1026 10 16.09344 0 0
9:56 pm 21:56 Clear 28 -2.2 26 -3.3 92 92 Calm 30.33 1027 10 16.09344 0 0
10:56 pm 22:56 Clear 29 -1.7 26 -3.3 89 89 WSW 3 6 30.33 1027 10 16.09344 0 0
11:56 pm 23:56 Clear 28 -2.2 26 -3.3 92 92 W 5 7 30.33 1027 10 16.09344 0 0

Powered by AerisWeather